Weather History for KLNP - February, 2015

Change the Weather History Date:

Friday, February 20, 2015

  Actual Average Record
Temperature  
Mean Temperature 8 °F -  
Max Temperature 26 °F 44 °F 68 °F (1997)
Min Temperature -9 °F 28 °F -9 °F (2015)
Degree Days  
Heating Degree Days 56    
Moisture  
Dew Point -9 °F    
Average Humidity 45    
Maximum Humidity 78    
Minimum Humidity 17    
Precipitation  
Precipitation 0.00 in - - ()
Sea Level Pressure  
Sea Level Pressure 30.20 in    
Wind  
Wind Speed 4 mph (South)    
Max Wind Speed 12 mph    
Max Gust Speed 17 mph    
Visibility 10 miles    
Events      
Averages and records for this station are not official NWS values.
T = Trace of Precipitation, MM = Missing Value Source: NWS Daily Summary

Daily Weather History Graph

Daily Weather History Graph

Search for Another Location

Airport or City:

Trip Planner

Search our weather history database for the weather conditions in past years. The results will help you decide how hot, cold, wet, or windy it might be!

Date:

Astronomy

Feb. 20, 2015 Rise Set
Actual Time 7:13 AM EST 6:15 PM EST
Civil Twilight 6:46 AM EST 6:41 PM EST
Nautical Twilight 6:16 AM EST 7:11 PM EST
Astronomical Twilight 5:46 AM EST 7:41 PM EST
Moon 8:07 AM EST (2/20) 8:34 PM EST (2/20)
Length of Visible Light 11h 54m
Length of Day
11h 02m
Waxing Crescent, 4% of the Moon is Illuminated
Feb 20
Waxing Crescent
Feb 25
First Quarter
Mar 5
Full
Mar 13
Last Quarter
Mar 20
New

Hourly Weather History & Observations

Time (EST) Temp. Windchill Dew Point Humidity Pressure Visibility Wind Dir Wind Speed Gust Speed Precip Events Conditions
12:15 AM -0.4 °F - -11.2 °F 60% 30.17 in 10.0 mi Calm Calm - N/A   Clear
12:35 AM -4.0 °F -14.6 °F -13.0 °F 65% 30.17 in 10.0 mi WNW 4.6 mph - N/A   Clear
12:55 AM -2.2 °F -10.4 °F -9.4 °F 71% 30.18 in 10.0 mi WNW 3.5 mph - N/A   Clear
1:15 AM -2.2 °F -14.2 °F -11.2 °F 66% 30.18 in 10.0 mi West 5.8 mph - N/A   Clear
1:35 AM -4.0 °F -12.4 °F -13.0 °F 65% 30.19 in 10.0 mi WNW 3.5 mph - N/A   Clear
1:55 AM -2.2 °F -12.5 °F -11.2 °F 66% 30.18 in 10.0 mi WNW 4.6 mph - N/A   Clear
2:15 AM -2.2 °F -12.5 °F -11.2 °F 66% 30.18 in 10.0 mi West 4.6 mph - N/A   Clear
2:35 AM -2.2 °F -12.5 °F -11.2 °F 66% 30.18 in 10.0 mi WNW 4.6 mph - N/A   Clear
2:55 AM -4.0 °F -16.3 °F -11.2 °F 71% 30.18 in 10.0 mi WNW 5.8 mph - N/A   Clear
3:15 AM -2.2 °F -14.2 °F -11.2 °F 66% 30.18 in 10.0 mi NW 5.8 mph - N/A   Clear
3:35 AM -2.2 °F -12.5 °F -11.2 °F 66% 30.18 in 10.0 mi NW 4.6 mph - N/A   Clear
3:55 AM -4.0 °F -12.4 °F -11.2 °F 71% 30.19 in 10.0 mi NW 3.5 mph - N/A   Clear
4:15 AM -4.0 °F -12.4 °F -11.2 °F 71% 30.19 in 10.0 mi NW 3.5 mph - N/A   Clear
4:35 AM -4.0 °F -12.4 °F -11.2 °F 71% 30.19 in 10.0 mi NW 3.5 mph - N/A   Clear
4:55 AM -4.0 °F - -13.0 °F 65% 30.20 in 10.0 mi Calm Calm - N/A   Clear
5:15 AM -5.8 °F - -13.0 °F 71% 30.21 in 10.0 mi Calm Calm - N/A   Unknown
5:35 AM -5.8 °F - -13.0 °F 71% 30.21 in 10.0 mi Calm Calm - N/A   Clear
5:55 AM -4.0 °F - -11.2 °F 71% 30.22 in 10.0 mi Calm Calm - N/A   Clear
6:15 AM -9.4 °F - -18.4 °F 65% 30.22 in 10.0 mi Calm Calm - N/A   Clear
6:35 AM -7.6 °F -18.8 °F -13.0 °F 77% 30.23 in 10.0 mi SSW 4.6 mph - N/A   Clear
6:55 AM -5.8 °F -14.5 °F -13.0 °F 71% 30.23 in 10.0 mi SSW 3.5 mph - N/A   Clear
7:15 AM -7.6 °F - -13.0 °F 77% 30.23 in 10.0 mi Calm Calm - N/A   Clear
7:35 AM -5.8 °F - -11.2 °F 77% 30.23 in 10.0 mi Calm Calm - N/A   Clear
7:55 AM -4.0 °F - -9.4 °F 78% 30.23 in 10.0 mi Calm Calm - N/A   Clear
8:15 AM -4.0 °F -12.4 °F -13.0 °F 65% 30.24 in 10.0 mi South 3.5 mph - N/A   Clear
8:35 AM -0.4 °F -8.3 °F -9.4 °F 66% 30.25 in 10.0 mi South 3.5 mph - N/A   Clear
8:55 AM 1.4 °F - -11.2 °F 56% 30.25 in 10.0 mi Calm Calm - N/A   Clear
9:15 AM 1.4 °F - -11.2 °F 56% 30.25 in 10.0 mi Calm Calm - N/A   Clear
9:35 AM 5.0 °F -2.1 °F -11.2 °F 47% 30.25 in 10.0 mi SSW 3.5 mph - N/A   Clear
9:55 AM 6.8 °F -2.0 °F -13.0 °F 40% 30.26 in 10.0 mi SSW 4.6 mph - N/A   Clear
10:15 AM 8.6 °F 2.0 °F -11.2 °F 40% 30.26 in 10.0 mi ESE 3.5 mph - N/A   Clear
10:35 AM 8.6 °F 2.0 °F -9.4 °F 44% 30.26 in 10.0 mi SE 3.5 mph - N/A   Clear
10:55 AM 10.4 °F 2.2 °F -9.4 °F 41% 30.26 in 10.0 mi SE 4.6 mph - N/A   Clear
11:15 AM 12.2 °F 6.1 °F -9.4 °F 38% 30.27 in 10.0 mi South 3.5 mph - N/A   Clear
11:35 AM 12.2 °F 4.3 °F -9.4 °F 38% 30.26 in 10.0 mi East 4.6 mph - N/A   Clear
11:55 AM 14.0 °F 5.1 °F -9.4 °F 35% 30.27 in 10.0 mi SE 5.8 mph - N/A   Clear
12:15 PM 15.8 °F 5.1 °F -9.4 °F 32% 30.26 in 10.0 mi SSE 8.1 mph - N/A   Clear
12:35 PM 17.6 °F 12.3 °F -9.4 °F 30% 30.26 in 10.0 mi South 3.5 mph - N/A   Clear
12:55 PM 19.4 °F 12.8 °F -7.6 °F 30% 30.24 in 10.0 mi ESE 4.6 mph - N/A   Clear
1:15 PM 19.4 °F 12.8 °F -7.6 °F 30% 30.25 in 10.0 mi South 4.6 mph - N/A   Clear
1:35 PM 21.2 °F 14.9 °F -7.6 °F 28% 30.23 in 10.0 mi East 4.6 mph - N/A   Clear
1:55 PM 21.2 °F 16.4 °F -7.6 °F 28% 30.22 in 10.0 mi SE 3.5 mph - N/A   Clear
2:15 PM 23.0 °F 14.7 °F -7.6 °F 26% 30.21 in 10.0 mi ESE 6.9 mph - N/A   Clear
2:35 PM 23.0 °F 15.8 °F -9.4 °F 24% 30.20 in 10.0 mi SE 5.8 mph - N/A   Clear
2:55 PM 23.0 °F 17.0 °F -9.4 °F 24% 30.19 in 10.0 mi ESE 4.6 mph - N/A   Scattered Clouds
3:15 PM 23.0 °F 17.0 °F -9.4 °F 24% 30.18 in 10.0 mi South 4.6 mph - N/A   Scattered Clouds
3:35 PM 24.8 °F - -9.4 °F 22% 30.19 in 10.0 mi Calm Calm - N/A   Scattered Clouds
3:55 PM 23.0 °F 15.8 °F -9.4 °F 24% 30.19 in 10.0 mi SSE 5.8 mph - N/A   Mostly Cloudy
4:15 PM 23.0 °F 14.7 °F -9.4 °F 24% 30.18 in 10.0 mi SSE 6.9 mph - N/A   Overcast
4:35 PM 23.0 °F 18.4 °F -9.4 °F 24% 30.19 in 10.0 mi SSE 3.5 mph - N/A   Overcast
4:55 PM 23.0 °F 14.7 °F -13.0 °F 20% 30.18 in 10.0 mi South 6.9 mph - N/A   Overcast
5:10 PM 23.0 °F 14.7 °F -13.0 °F 20% 30.19 in 10.0 mi South 6.9 mph - N/A   Overcast
5:35 PM 21.2 °F 14.9 °F -14.8 °F 20% 30.19 in 10.0 mi South 4.6 mph - N/A   Overcast
5:55 PM 21.2 °F 14.9 °F -9.4 °F 26% 30.20 in 10.0 mi SW 4.6 mph - N/A   Overcast
6:15 PM 21.2 °F 13.6 °F -5.8 °F 30% 30.19 in 10.0 mi SSW 5.8 mph - N/A   Overcast
6:35 PM 21.2 °F 14.9 °F -7.6 °F 28% 30.19 in 10.0 mi South 4.6 mph - N/A   Overcast
6:55 PM 21.2 °F 12.6 °F -13.0 °F 22% 30.18 in 10.0 mi SSE 6.9 mph - N/A   Overcast
7:15 PM 23.0 °F 12.4 °F -16.6 °F 17% 30.17 in 10.0 mi South 10.4 mph - N/A   Overcast
7:35 PM 21.2 °F 9.5 °F -18.4 °F 17% 30.17 in 10.0 mi South 11.5 mph - N/A   Mostly Cloudy
7:55 PM 21.2 °F 12.6 °F -14.8 °F 20% 30.18 in 10.0 mi SSW 6.9 mph - N/A   Mostly Cloudy
8:15 PM 19.4 °F 9.5 °F -7.6 °F 30% 30.18 in 10.0 mi SSW 8.1 mph - N/A   Mostly Cloudy
8:35 PM 21.2 °F 10.9 °F -5.8 °F 30% 30.17 in 10.0 mi South 9.2 mph - N/A   Clear
8:55 PM 23.0 °F 14.7 °F -4.0 °F 31% 30.17 in 10.0 mi South 6.9 mph - N/A   Scattered Clouds
9:15 PM 21.2 °F 13.6 °F -5.8 °F 30% 30.17 in 10.0 mi South 5.8 mph - N/A   Scattered Clouds
9:35 PM 21.2 °F 14.9 °F -5.8 °F 30% 30.17 in 10.0 mi South 4.6 mph - N/A   Scattered Clouds
9:55 PM 26.6 °F 17.5 °F -0.4 °F 31% 30.16 in 10.0 mi SSE 9.2 mph 17.3 mph N/A   Overcast
10:15 PM 26.6 °F 16.8 °F 1.4 °F 34% 30.15 in 10.0 mi South 10.4 mph - N/A   Overcast
10:35 PM 26.6 °F 18.2 °F 1.4 °F 34% 30.15 in 10.0 mi SSE 8.1 mph - N/A   Mostly Cloudy
10:55 PM 24.8 °F 16.9 °F 1.4 °F 36% 30.15 in 10.0 mi SSE 6.9 mph - N/A   Scattered Clouds
11:15 PM 24.8 °F 16.1 °F 1.4 °F 36% 30.15 in 10.0 mi SSE 8.1 mph - N/A   Mostly Cloudy
11:35 PM 24.8 °F 16.1 °F 1.4 °F 36% 30.14 in 10.0 mi SE 8.1 mph - N/A   Mostly Cloudy
11:55 PM 26.6 °F 16.8 °F 3.2 °F 37% 30.14 in 10.0 mi SSE 10.4 mph - N/A   Mostly Cloudy